Home > Weather > Tyler > Past weeks

Flag for USA Past Weather in Tyler, Texas, USA — Yesterday and Last 2 Weeks

Now
89 °F

Sunny.


Feels Like: 95 °F
Forecast: 72 / 85 °F
Wind: 10 mph from East

Location: Tyler Pounds Field

Current Time: May 29, 2016 at 4:19:11 PM

Latest Report: May 29, 2016 at 3:53 PM


Visibility: 10 mi

Pressure: 30.03 "Hg

Humidity: 55%

Dew Point: 71 °F

Location of TylerLocation

Past Weather in Tyler — Graph

°F

Tyler Temperature Yesterday

Maximum temperature yesterday: 86 °F (at 5:53 PM)
Minimum temperature yesterday: 65 °F (at 3:53 AM)
Average temperature yesterday: 74 °F

High & Low Weather Summary for the Past Weeks

 TemperatureHumidityPressure
High89 °F (May 25, 3:53 PM)100% (May 18, 2:53 PM)30.15 "Hg (May 18, 2:53 PM)
Low59 °F (May 19, 10:53 AM)44% (May 17, 10:53 AM)29.70 "Hg (May 27, 5:53 AM)
Average73 °F74%29.96 "Hg
* Reported May 14 2:53 PM — May 29 2:53 PM, Tyler, Weather by CustomWeather, © 2016

Note: Actual official high and low records may vary slightly from our data, if they occured in-between our weather recording intervals... More about our weather records

Advertising

Tyler Weather History for the Previous 24 Hours

Scroll right to see more
 ConditionsComfort  
Time TempWeatherWind HumidityBarometerVisibility
2:53 PM
Sun, May 29
87 °FPassing clouds.8 mph53%30.05 "Hg10 mi
1:53 PM86 °FSunny.12 mph59%30.06 "Hg10 mi
12:53 PM88 °FSunny.10 mph57%30.06 "Hg10 mi
11:53 AM82 °FSunny.7 mph72%30.09 "Hg10 mi
10:53 AM79 °FPassing clouds.No wind77%30.10 "Hg10 mi
9:53 AM77 °FSunny.5 mph85%30.10 "Hg10 mi
8:53 AM76 °FMostly cloudy.7 mph88%30.11 "Hg10 mi
7:53 AM74 °FSunny.6 mph91%30.09 "Hg10 mi
6:53 AM73 °FClear.3 mph90%30.07 "Hg10 mi
5:53 AM73 °FClear.3 mph90%30.06 "Hg10 mi
4:53 AM72 °FClear.6 mph91%30.02 "Hg10 mi
3:53 AM73 °FClear.5 mph88%30.02 "Hg10 mi
2:53 AM74 °FPassing clouds.6 mph88%30.02 "Hg10 mi
1:53 AM75 °FClear.6 mph85%30.01 "Hg10 mi
12:53 AM75 °FClear.6 mph88%30.01 "Hg10 mi
11:53 PM
Sat, May 28
75 °FPassing clouds.6 mph88%30.02 "Hg10 mi
10:53 PM77 °FClear.3 mph82%30.00 "Hg10 mi
9:53 PM79 °FClear.3 mph77%29.98 "Hg10 mi
8:53 PM78 °FSunny.5 mph79%29.96 "Hg10 mi
7:53 PM83 °FSunny.8 mph68%29.94 "Hg10 mi
6:53 PM85 °FPassing clouds.10 mph63%29.93 "Hg10 mi
5:53 PM86 °FPassing clouds.8 mph59%29.93 "Hg10 mi
4:53 PM85 °FScattered clouds.5 mph63%29.94 "Hg10 mi
Weather by CustomWeather, © 2016

See weather overviewHow to use our weather pages